SCP
0 0 0 0 0 0 0 0 0 0 0 0 0 0 0 0 0 0 0 0 0 0 0 0 0 0 0 0 0 0 0 0 0 0 0 0 0 0
0 0 0 0 0 0 0 0 0 0 0 0 0 0 0 0 0 0 0 0 0 0 0 0 0 0 0 0 0 0 0 0 0 0 0 0 0 0
0 0 0 0 0 0 0 0 0 0 0 0 0 0 0 0 0 0 0 0 0 0 0 0 0 0 0 0 0 0 0 0 0 0 0 0 0 0
0 0 0 0 0 0 0 0 0 0 0 0 0 0 0 0 0 0 0 0 0 0 0 0 0 0 0 0 0 0 0 0 0 0 0 0 0 0
0 0 0 0 0 0 0 0 0 0 0 0 0 0 0 0 0 0 0 0 0 0 0 0 0 0 0 0 0 0 0 0 0 0 0 0 0 0
0 0 0 0 0 0 0 0 0 0 0 0 0 0 0 0 0 0 0 0 0 0 0 0 0 0 0 0 0 0 0 0 0 0 0 0 0 0
0 0 0 0 0 0 0 0 0 0 0 0 0 0 0 0 0 0 0 0 0 0 0 0 0 0 0 0 0 0 0 0 0 0 0 0 0 0
0 0 0 0 0 0 0 0 0 0 0 0 0 0 0 0 0 0 0 0 0 0 0 0 0 0 0 0 0 0 0 0 0 0 0 0 0 0
0 0 0 0 0 0 0 0 0 0 0 0 0 0 0 0 0 0 0 0 0 0 0 0 0 0 0 0 0 0 0 0 0 0 0 0 0 0
0 0 0 0 0 0 0 0 0 0 0 0 0 0 0 0 0 0 0 0 0 0 0 0 0 0 0 0 0 0 0 0 0 0 0 0 0 0
0 0 0 0 0 0 0 0 0 0 0 0 0 0 0 0 0 0 0 0 0 0 0 0 0 0 0 0 0 0 0 0 0 0 0 0 0 0
0 0 0 0 0 0 0 0 0 0 0 0 0 0 0 0 0 0 0 0 0 0 0 0 0 0 0 0 0 0 0 0 0 0 0 0 0 0
0 0 0 0 0 0 0 0 0 0 0 0 0 0 0 0 0 0 0 0 0 0 0 0 0 0 0 0 0 0 0 0 0 0 0 0 0 0
0 0 0 0 0 0 0 0 0 0 0 0 0 0 0 0 0 0 0 0 0 0 0 0 0 0 0 0 0 0 0 0 0 0 0 0 0 0
0 0 0 0 0 0 0 0 0 0 0 0 0 0 0 0 0 0 0 0 0 0 0 0 0 0 0 0 0 0 0 0 0 0 0 0 0 0
0 0 0 0 0 0 0 0 0 0 0 0 0 0 0 0 0 0 0 0 0 0 0 0 0 0 0 0 0 0 0 0 0 0 0 0 0 0
0 0 0 0 0 0 0 0 0 0 0 0 0 0 0 0 0 0 0 0 0 0 0 0 0 0 0 0 0 0 0 0 0 0 0 0 0 0
0 0 0 0 0 0 0 0 0 0 0 0 0 0 0 0 0 0 0 0 0 0 0 0 0 0 0 0 0 0 0 0 0 0 0 0 0 0
0 0 0 0 0 0 0 0 0 0 0 0 0 0 0 0 0 0 0 0 0 0 0 0 0 0 0 0 0 0 0 0 0 0 0 0 0 0
0 0 0 0 0 0 0 0 0 0 0 0 0 0 0 0 0 0 0 0 0 0 0 0 0 0 0 0 0 0 0 0 0 0 0 0 0 0
0 0 0 0 0 0 0 0 0 0 0 0 0 0 0 0 0 0 0 0 0 0 0 0 0 0 0 0 0 0 0 0 0 0 0 0 0 0
0 0 0 0 0 0 0 0 0 0 0 0 0 0 0 0 0 0 0 0 0 0 0 0 0 0 0 0 0 0 0 0 0 0 0 0 0 0
0 0 0 0 0 0 0 0 0 0 0 0 0 0 0 0 0 0 0 0 0 0 0 0 0 0 0 0 0 0 0 0 0 0 0 0 0 0
Wind_Speed
1 1 1 1 1 1 1 1 2 2 3 2 2 2 2 2 5 3 4 9 11 11 11 11 11 11 11 11 11 11 12 11 10 11 12 12 12 13
0 0 1 1 1 0 1 1 1 2 3 2 2 2 3 4 7 4 5 11 11 11 11 11 11 11 11 10 10 10 11 10 10 11 12 12 13 13
0 0 1 1 1 1 1 1 1 2 4 3 2 2 2 3 4 4 4 4 5 11 12 12 11 11 11 10 10 10 11 11 10 11 12 12 13 13
1 1 1 1 1 1 1 2 2 2 3 5 3 2 3 3 3 4 5 5 4 10 12 12 12 11 12 11 10 10 10 10 10 11 11 12 12 12
2 2 2 2 2 1 1 2 2 2 2 3 4 2 2 3 3 4 4 4 5 7 10 10 11 12 12 12 11 10 10 10 10 11 11 11 12 12
2 2 3 3 3 3 2 2 2 2 3 3 4 3 3 3 2 3 5 4 5 5 7 8 10 12 12 12 11 10 9 10 10 11 11 11 11 12
2 2 2 3 4 4 3 2 2 2 2 3 4 4 3 3 3 3 5 5 5 3 4 5 5 5 6 9 10 10 10 10 11 11 11 12 11 12
2 2 2 3 4 5 5 5 4 3 3 3 3 4 5 4 4 4 4 5 5 2 3 6 4 5 5 5 9 11 11 11 11 11 11 11 12 12
2 2 2 3 4 3 4 6 6 7 6 4 5 6 6 4 4 5 4 5 6 5 4 6 4 5 5 6 12 11 11 11 11 11 11 11 11 12
2 3 3 3 3 3 3 3 3 4 5 4 5 6 5 5 4 5 5 6 6 4 2 5 4 5 6 5 11 11 10 10 10 10 11 11 11 12
3 3 3 3 5 5 2 3 4 4 6 7 8 7 8 8 5 3 3 4 5 4 2 3 4 5 5 5 7 10 10 10 10 10 11 11 11 12
2 3 4 5 6 5 2 2 4 4 4 4 5 6 5 6 7 4 4 4 4 4 2 2 3 4 5 4 3 4 5 8 11 11 11 11 11 6
2 2 3 6 7 6 5 3 5 5 3 3 4 4 3 3 3 3 4 4 5 5 3 2 3 3 4 6 5 4 3 4 5 6 9 10 11 8
2 2 3 6 7 7 5 5 6 5 2 2 3 3 4 4 4 4 5 5 6 7 6 4 4 4 5 6 6 5 4 4 4 5 4 8 9 11
3 5 5 6 6 5 5 6 4 2 2 2 3 4 4 4 4 4 4 5 6 6 5 5 5 5 5 6 6 5 5 4 3 4 4 4 4 4
2 3 5 5 4 4 4 3 2 2 2 3 3 4 4 4 4 3 4 4 4 4 4 5 5 5 5 6 6 6 5 4 4 5 5 5 5 4
2 1 1 1 2 2 2 2 2 2 3 3 3 3 4 4 4 3 3 3 4 5 5 3 4 5 6 6 6 6 5 5 5 5 5 6 5 5
2 1 2 2 2 3 3 3 2 2 3 3 3 3 4 4 4 4 3 3 4 5 5 4 4 4 3 4 7 6 5 5 5 5 4 5 6 4
1 2 2 3 3 3 3 3 3 3 3 3 3 4 4 4 4 4 4 4 4 5 4 3 3 2 4 5 5 4 4 5 5 5 4 4 6 6
1 2 2 2 3 3 3 3 3 3 3 3 3 3 4 4 4 4 4 4 5 5 4 3 3 3 4 5 5 5 7 6 5 5 4 4 4 6
2 2 2 3 3 3 3 3 3 3 3 3 3 4 4 4 4 4 4 6 5 4 5 5 5 7 4 3 4 5 5 7 6 4 4 3 4 3
3 3 3 3 3 3 3 3 3 3 4 3 3 3 4 4 5 5 5 4 4 4 5 5 4 3 2 2 5 6 6 6 6 8 6 4 2 2
3 3 3 3 3 3 3 3 4 4 4 4 3 3 4 4 4 4 4 4 4 4 4 4 3 2 3 3 4 5 6 6 4 4 4 5 6 7
Wind_Direction
214 211 218 247 251 258 233 198 213 270 279 273 292 321 326 313 320 325 320 322 325 323 318 316 315 315 307 307 309 307 307 303 303 302 300 301 301 303
220 181 240 240 238 250 239 236 212 221 260 280 272 300 310 312 318 323 314 322 324 322 322 319 316 316 310 306 304 304 305 303 302 300 299 301 303 302
286 216 258 250 232 238 238 236 240 227 252 278 274 289 290 298 313 315 310 309 313 321 320 318 314 312 312 305 301 301 301 298 299 299 299 300 301 301
246 238 245 236 243 252 237 238 244 241 245 277 289 292 280 290 301 309 314 314 307 315 319 316 314 310 310 303 302 299 298 295 298 299 299 300 301 302
236 229 233 227 249 255 254 251 252 256 245 259 280 283 280 292 305 307 307 302 306 310 312 313 315 314 310 306 303 302 297 294 294 296 299 300 301 301
246 233 229 226 236 245 251 249 256 261 256 260 272 281 282 287 295 306 313 311 306 307 305 309 310 311 309 306 301 300 297 294 292 294 297 296 296 297
282 260 254 254 251 247 247 240 241 255 264 268 274 287 288 298 296 295 300 307 299 285 295 300 302 299 301 301 298 295 294 292 292 294 296 297 296 296
288 288 282 279 276 283 280 276 267 258 258 261 270 273 280 277 280 289 296 305 301 296 302 297 289 290 292 286 292 292 291 293 295 295 295 298 299 297
270 282 290 286 297 279 286 294 294 287 276 264 262 266 270 265 273 283 279 278 276 285 297 289 287 287 289 292 297 292 293 293 295 296 296 298 298 297
262 263 263 272 275 277 272 282 283 287 284 271 253 261 264 264 253 261 270 279 275 272 259 278 288 285 292 287 293 292 294 295 296 298 299 300 300 298
271 262 258 261 276 296 287 279 288 290 298 293 291 288 290 292 290 289 291 295 290 281 246 262 282 293 288 278 285 296 298 299 297 297 299 299 298 297
275 273 276 278 285 299 275 274 285 288 297 309 307 305 297 293 295 271 262 273 283 283 254 258 276 304 301 281 279 289 289 293 298 301 302 300 301 300
268 276 276 290 295 300 298 271 278 296 293 290 292 293 292 286 282 271 257 252 260 263 270 275 273 273 273 293 295 282 279 285 289 292 298 301 300 298
259 264 274 295 300 301 300 298 307 315 302 296 295 294 293 290 287 284 276 261 251 257 265 258 257 263 275 284 289 295 291 282 282 285 286 293 294 295
259 270 286 300 305 305 302 304 311 301 285 285 287 285 283 282 283 285 282 277 272 265 261 250 251 260 258 266 279 289 299 294 279 282 285 284 283 286
292 290 302 307 309 302 304 311 299 280 279 271 280 282 287 290 286 284 286 296 292 286 264 252 251 254 263 264 266 278 279 283 294 291 290 285 278 270
283 295 296 297 301 298 296 292 291 298 299 289 283 289 293 295 293 294 287 292 284 291 296 289 273 262 253 256 266 268 276 279 280 288 291 291 284 277
284 255 263 268 272 277 281 288 290 290 287 285 282 283 287 290 294 295 291 286 287 289 294 301 313 315 303 272 241 261 273 277 286 285 281 284 290 292
293 267 263 264 270 272 273 275 281 284 283 280 281 283 286 287 289 292 293 289 288 290 292 297 300 297 301 300 291 248 267 287 293 292 284 276 282 291
279 271 271 270 271 272 273 276 279 287 287 282 280 282 282 283 286 287 286 285 289 294 297 294 286 276 268 278 285 286 282 280 282 288 291 286 281 286
278 276 272 271 272 271 271 273 276 280 284 281 276 277 279 279 281 283 285 289 290 289 294 294 289 296 283 278 286 293 296 292 289 282 288 295 302 307
272 273 274 273 274 273 272 274 276 276 278 275 273 276 276 273 275 280 283 287 287 287 290 294 303 305 294 282 290 297 306 315 310 304 294 279 273 284
268 268 271 274 272 270 268 271 272 272 270 269 271 273 276 278 278 278 281 284 287 292 298 303 312 308 295 285 288 295 306 316 324 331 319 318 309 295